Weather History for Pinedale, WY

Change the Weather History Date:

Tuesday, November 1, 2011

  Actual Average (KBPI) Record (KBPI)
Temperature  
Mean Temperature 30 °F 32 °F  
Max Temperature 36 °F 47 °F 63 °F (2014)
Min Temperature 23 °F 16 °F -1 °F (2003)
Degree Days  
Heating Degree Days 36 33  
Month to date heating degree days 33  
Since 1 July heating degree days 1613  
Cooling Degree Days 0 0  
Month to date cooling degree days 0  
Year to date cooling degree days 35  
Moisture  
Dew Point 23 °F    
Average Humidity 73    
Maximum Humidity 99    
Minimum Humidity 41    
Precipitation  
Precipitation 0.00 in 0.01 in 0.03 in (1992)
Month to date precipitation 0.01  
Year to date precipitation 5.98  
Sea Level Pressure  
Sea Level Pressure 29.99 in    
Wind  
Wind Speed 7 mph (WNW)    
Max Wind Speed 28 mph    
Max Gust Speed 36 mph    
Visibility 10 miles    
Events Snow    
T = Trace of Precipitation, MM = Missing Value Source: NWS Daily Summary

Daily Weather History Graph

Daily Weather History Graph

Search for Another Location

Airport:

Trip Planner

Search our weather history database for the weather conditions in past years. The results will help you decide how hot, cold, wet, or windy it might be!

Date:

Astronomy

Nov. 01, 2011 Rise Set
Actual Time 7:53 AM MDT 6:11 PM MDT
Civil Twilight 7:23 AM MDT 6:41 PM MDT
Nautical Twilight 6:50 AM MDT 7:14 PM MDT
Astronomical Twilight 6:17 AM MDT 7:47 PM MDT
Moon 1:43 PM MDT (11/1) 11:57 PM MDT (11/1)
Length of Visible Light 11h 17m
Length of Day
10h 18m
Waxing Crescent, 40% of the Moon is Illuminated
Nov 1
Waxing Crescent
Nov 2
First Quarter
Nov 10
Full
Nov 18
Last Quarter
Nov 24
New

Hourly Weather History & Observations

Time (MDT) Temp. Windchill Dew Point Humidity Pressure Visibility Wind Dir Wind Speed Gust Speed Precip Events Conditions
12:15 AM 34.3 °F - 31.8 °F 90% 30.04 in 10.0 mi Calm Calm - N/A   Mostly Cloudy
12:35 AM 32.9 °F - 31.5 °F 94% 30.03 in 10.0 mi Calm Calm - N/A   Clear
12:55 AM 31.6 °F 28.3 °F 30.2 °F 94% 30.03 in 10.0 mi WNW 3.5 mph - N/A   Clear
1:15 AM 30.4 °F - 29.3 °F 96% 30.03 in 10.0 mi Calm Calm - N/A   Clear
1:35 AM 32.0 °F 27.5 °F 30.7 °F 95% 30.03 in 10.0 mi NNW 4.6 mph - N/A   Mostly Cloudy
1:55 AM 31.1 °F 27.7 °F 29.8 °F 95% 30.03 in 10.0 mi WSW 3.5 mph - N/A   Mostly Cloudy
2:15 AM 31.3 °F 27.9 °F 30.7 °F 98% 30.03 in 10.0 mi West 3.5 mph - N/A   Overcast
2:35 AM 30.7 °F 26.0 °F 30.0 °F 97% 30.02 in 10.0 mi West 4.6 mph - N/A   Overcast
2:55 AM 31.3 °F - 30.7 °F 98% 30.01 in 10.0 mi Calm Calm - N/A   Overcast
3:15 AM 32.0 °F - 30.7 °F 95% 30.01 in 10.0 mi Calm Calm - N/A   Overcast
3:35 AM 31.8 °F - 30.6 °F 95% 29.99 in 10.0 mi Calm Calm - N/A   Overcast
3:55 AM 31.3 °F - 30.7 °F 98% 29.98 in 10.0 mi Calm Calm - N/A   Scattered Clouds
4:15 AM 30.0 °F 26.5 °F 29.8 °F 99% 29.97 in 10.0 mi NE 3.5 mph - N/A   Clear
4:35 AM 28.6 °F - 28.4 °F 99% 29.97 in 10.0 mi Calm Calm - N/A   Clear
4:55 AM - - - N/A% 29.98 in 10.0 mi Calm Calm - N/A   Scattered Clouds
5:15 AM 33.8 °F - 28.0 °F 79% 29.97 in 10.0 mi Calm Calm - N/A   Mostly Cloudy
5:35 AM 33.3 °F - 28.4 °F 82% 29.97 in 10.0 mi Calm Calm - N/A   Mostly Cloudy
5:55 AM 31.5 °F 28.1 °F 28.6 °F 89% 29.97 in 10.0 mi West 3.5 mph - N/A   Mostly Cloudy
6:15 AM 30.6 °F 23.8 °F 29.1 °F 94% 29.98 in 10.0 mi NNE 6.9 mph - N/A   Scattered Clouds
6:35 AM 30.2 °F 26.7 °F 29.5 °F 97% 29.98 in 10.0 mi SSW 3.5 mph - N/A   Scattered Clouds
7:15 AM 29.3 °F 25.6 °F 28.4 °F 96% 29.96 in 10.0 mi WNW 3.5 mph - N/A   Mostly Cloudy
7:35 AM 28.6 °F - 28.2 °F 99% 29.96 in 10.0 mi Calm Calm - N/A   Scattered Clouds
8:15 AM 25.7 °F 19.0 °F 23.4 °F 91% 29.97 in 10.0 mi WNW 5.8 mph - N/A   Scattered Clouds
8:35 AM 23.2 °F 16.0 °F 20.1 °F 88% 29.97 in 10.0 mi NNW 5.8 mph - N/A   Clear
8:55 AM 23.7 °F 17.8 °F 18.5 °F 80% 29.97 in 10.0 mi NNW 4.6 mph - N/A   Clear
9:15 AM 26.8 °F 17.7 °F 19.9 °F 75% 29.98 in 10.0 mi WNW 9.2 mph - N/A   Clear
9:35 AM 30.9 °F 21.7 °F 18.0 °F 59% 29.98 in 10.0 mi WNW 11.5 mph - N/A   Clear
9:55 AM 31.8 °F 22.8 °F 18.5 °F 58% 29.97 in 10.0 mi WNW 11.5 mph - N/A   Scattered Clouds
10:15 AM 32.2 °F 21.8 °F 19.0 °F 58% 29.97 in 10.0 mi WNW 15.0 mph 19.6 mph N/A   Mostly Cloudy
10:35 AM 32.4 °F 22.1 °F 20.5 °F 62% 29.97 in 10.0 mi WNW 15.0 mph - N/A   Overcast
11:15 AM 33.3 °F 24.6 °F 20.3 °F 59% 29.97 in 10.0 mi WNW 11.5 mph - N/A   Overcast
11:35 AM 33.6 °F 23.7 °F 21.0 °F 60% 29.97 in 10.0 mi WNW 15.0 mph - N/A   Overcast
11:55 AM 34.3 °F 24.2 °F 21.0 °F 58% 29.97 in 10.0 mi WNW 16.1 mph 23.0 mph N/A   Overcast
12:15 PM 34.0 °F 23.8 °F 21.4 °F 60% 29.97 in 10.0 mi WNW 16.1 mph - N/A   Overcast
12:35 PM 34.5 °F 23.8 °F 21.6 °F 59% 29.97 in 10.0 mi NW 18.4 mph 25.3 mph N/A   Overcast
1:15 PM 35.4 °F 24.9 °F 21.7 °F 58% 29.97 in 10.0 mi WNW 18.4 mph 21.9 mph N/A   Mostly Cloudy
1:35 PM 35.8 °F 25.4 °F 21.6 °F 56% 29.97 in 10.0 mi WNW 18.4 mph 25.3 mph N/A   Mostly Cloudy
1:55 PM 36.5 °F 26.0 °F 21.0 °F 54% 29.97 in 10.0 mi WNW 19.6 mph 26.5 mph N/A   Scattered Clouds
2:15 PM 36.1 °F 25.2 °F 20.3 °F 53% 29.97 in 10.0 mi WNW 20.7 mph 26.5 mph N/A   Clear
2:35 PM 36.0 °F 25.0 °F 19.4 °F 51% 29.98 in 10.0 mi WNW 20.7 mph 26.5 mph N/A   Mostly Cloudy
2:55 PM 35.6 °F 24.8 °F 18.7 °F 50% 29.98 in 10.0 mi WNW 19.6 mph 24.2 mph N/A   Overcast
3:15 PM 36.7 °F 26.0 °F 16.0 °F 43% 29.98 in 10.0 mi NW 20.7 mph 26.5 mph N/A   Overcast
3:35 PM 36.7 °F 26.3 °F 14.7 °F 41% 29.99 in 10.0 mi WNW 19.6 mph 28.8 mph N/A   Scattered Clouds
3:55 PM 35.6 °F 24.5 °F 13.8 °F 41% 30.00 in 10.0 mi WNW 20.7 mph 27.6 mph N/A   Clear
4:15 PM 35.8 °F 24.5 °F 14.9 °F 43% 30.00 in 10.0 mi WNW 21.9 mph 29.9 mph N/A   Scattered Clouds
4:35 PM 35.2 °F 24.7 °F 14.5 °F 43% 30.01 in 10.0 mi WNW 18.4 mph 27.6 mph N/A   Clear
4:55 PM 33.3 °F 19.8 °F 13.8 °F 45% 30.03 in 10.0 mi West 27.6 mph 35.7 mph N/A   Clear
5:15 PM 31.8 °F 18.4 °F 14.0 °F 48% 30.03 in 10.0 mi WNW 25.3 mph 32.2 mph N/A   Clear
5:35 PM 31.5 °F 18.8 °F 13.5 °F 47% 30.05 in 10.0 mi WNW 21.9 mph 32.2 mph N/A   Scattered Clouds
5:55 PM 30.9 °F 17.2 °F 12.0 °F 46% 30.07 in 10.0 mi NW 25.3 mph 31.1 mph N/A   Overcast
6:15 PM 28.6 °F 13.5 °F 16.5 °F 61% 30.10 in 3.0 mi NW 27.6 mph 33.4 mph N/A Snow Light Snow
6:35 PM 27.3 °F 11.5 °F 17.1 °F 65% 30.11 in 2.5 mi NW 28.8 mph 34.5 mph N/A Snow Light Snow
6:55 PM 26.6 °F 12.0 °F 18.0 °F 70% 30.12 in 4.0 mi NW 23.0 mph 28.8 mph N/A Snow Light Snow
7:15 PM 26.8 °F 13.3 °F 16.9 °F 66% 30.13 in 7.0 mi NW 19.6 mph 27.6 mph N/A Snow Light Snow
7:35 PM 27.3 °F 13.6 °F 15.4 °F 61% 30.14 in 10.0 mi NW 20.7 mph 27.6 mph N/A   Overcast
7:55 PM 27.1 °F 14.9 °F 16.0 °F 63% 30.15 in 10.0 mi NW 16.1 mph 24.2 mph N/A   Overcast
8:35 PM 26.4 °F 18.0 °F 16.7 °F 67% 30.17 in 10.0 mi NW 8.1 mph - N/A   Overcast
8:55 PM 26.1 °F 19.4 °F 17.2 °F 69% 30.18 in 10.0 mi WNW 5.8 mph - N/A   Overcast
9:15 PM 25.2 °F 20.9 °F 17.6 °F 73% 30.19 in 10.0 mi South 3.5 mph - N/A   Overcast
9:35 PM 24.8 °F - 17.4 °F 74% 30.19 in 10.0 mi Calm Calm - N/A   Overcast
9:55 PM 24.8 °F - 17.1 °F 72% 30.21 in 10.0 mi Calm Calm - N/A   Overcast
10:15 PM 25.0 °F - 14.0 °F 63% 30.21 in 10.0 mi Calm Calm - N/A   Overcast
10:35 PM 22.6 °F 18.0 °F 9.1 °F 56% 30.22 in 10.0 mi NNE 3.5 mph - N/A   Scattered Clouds
10:55 PM 23.0 °F 18.4 °F 13.6 °F 67% 30.23 in 10.0 mi NNW 3.5 mph - N/A   Scattered Clouds
11:15 PM 22.3 °F 13.0 °F 13.6 °F 69% 30.24 in 10.0 mi WNW 8.1 mph - N/A   Mostly Cloudy
11:35 PM 20.8 °F 11.2 °F 13.1 °F 72% 30.25 in 10.0 mi WNW 8.1 mph - N/A   Mostly Cloudy
11:55 PM 19.8 °F 14.7 °F 12.7 °F 74% 30.26 in 10.0 mi West 3.5 mph - N/A   Overcast